Location: Harbor Side
(32.6101°N, 117.0814°W)
Time: 06:21:40
(UTC+00:00)

Cosmos 1726 - Pass Details

Date: 21 April 2021
Orbit: 481 x 496 km, 82.5° (Epoch: 13 May)

Event Time Altitude Azimuth Distance (km) Brightness Sun altitude
Rises 12:35:27 0° 342° (NNW) 2,586 5.8 -8.1°
Reaches altitude 10° 12:37:42 10° 332° (NNW) 1,698 4.7 -7.6°
Maximum altitude 12:41:03 32° 268° (W) 867 2.8 -7.0°
Drops below altitude 10° 12:44:22 10° 204° (SSW) 1,684 4.4 -6.3°
Sets 12:46:36 0° 194° (SSW) 2,559 5.4 -5.9°
